Location: Wingville
(42.9917°N, 90.4915°W)
Time: 02:19:14
(UTC+00:00)

CUBESAT XI-V - Visible Passes

Search period start: 30 June 2022 00:00
Search period end: 10 July 2022 00:00
Orbit: 666 x 692 km, 98.1° (Epoch: 29 June)

Date Brightness Start Highest point End Pass type
(mag) Time Alt. Az. Time Alt. Az. Time Alt. Az.
30 Jun ? 07:17:05 26° SE 07:19:17 46° ENE 07:23:41 10° N visible
30 Jun ? 08:55:29 17° WSW 08:56:47 18° W 09:00:00 10° NW visible
01 Jul ? 06:16:10 10° E 06:18:05 13° ENE 06:20:00 10° NE visible
01 Jul ? 07:53:02 39° S 07:54:44 78° WSW 07:59:21 10° NNW visible
02 Jul ? 06:50:35 16° ESE 06:53:12 26° ENE 06:56:59 10° N visible
02 Jul ? 08:28:59 28° SW 08:30:20 33° W 08:34:31 10° NNW visible
03 Jul ? 07:26:33 31° SE 07:28:31 57° ENE 07:33:01 10° N visible
03 Jul ? 09:04:57 14° WSW 09:06:09 15° W 09:08:45 10° NW visible
04 Jul ? 06:24:36 10° E 06:27:13 15° ENE 06:29:51 10° NNE visible
04 Jul ? 08:02:30 40° SSW 08:03:59 62° WSW 08:08:33 10° NNW visible
05 Jul ? 07:00:04 20° ESE 07:02:23 31° ENE 07:06:26 10° N visible
05 Jul ? 08:38:27 24° WSW 08:39:39 27° W 08:43:33 10° NW visible
06 Jul ? 07:36:01 37° SSE 07:37:44 71° ENE 07:42:19 10° N visible
06 Jul ? 09:14:25 11° WSW 09:15:30 12° W 09:17:11 10° WNW visible
07 Jul ? 06:33:34 11° ESE 06:36:22 18° ENE 06:39:29 10° NNE visible
07 Jul ? 08:11:58 38° SSW 08:13:16 49° W 08:17:44 10° NNW visible
08 Jul ? 07:09:32 25° ESE 07:11:34 38° ENE 07:15:49 10° N visible
08 Jul ? 08:47:55 20° WSW 08:48:58 22° W 08:52:31 10° NW visible
09 Jul ? 06:09:36 10° ENE 06:10:26 10° ENE 06:11:15 10° NE visible
09 Jul ? 07:45:29 44° SSE 07:46:58 88° ENE 07:51:34 10° NNW visible
